www.pogodaiklimat.ru
ПОГОДА в Комаке
Время
(UTC), дата
03 12.10
06 12.10
09 12.10
12 12.10
15 12.10
18 12.10
21 12.10
00 13.10
03 13.10
06 13.10
09 13.10
12 13.10
15 13.10
18 13.10
21 13.10
00 14.10
03 14.10
06 14.10
09 14.10
12 14.10
15 14.10
18 14.10
21 14.10
00 15.10
03 15.10
06 15.10
09 15.10
12 15.10
15 15.10
18 15.10
21 15.10
00 16.10
03 16.10
06 16.10
09 16.10
12 16.10
15 16.10
18 16.10
21 16.10
00 17.10
03 17.10
06 17.10
09 17.10
12 17.10
15 17.10
18 17.10
21 17.10
00 18.10
03 18.10
06 18.10
09 18.10
12 18.10
15 18.10
18 18.10
21 18.10
Ветер
(напр.,м/с)
Видим. Явления Облачность Т
(С)
Тd
(С)
f
(%)
Тe
(С)
Тes
(С)
Комфортность P
(гПа)
Po
(гПа)
Тmin
(С)
Tmax
(С)
R
(мм)
R24
(мм)
S
(см)
З 3 50 км 10/3 1000 м
[Sc Ac trans Cc]
-5.3 -12.3 58 -10 -10 очень
холодно
1035.4 996.9
З 3 50 км 9/3 1000 м
[Sc Ac trans Cc]
-2.8 -11.8 50 -7 -7 холодно 1034.6 996.4
З 1 50 км 8/5 1000 м
[Sc Ac cast Ci fib]
-3.4 -11.3 54 -5 -5 холодно 1034.5 996.3
штиль 0 50 км 9/0
[Ac trans]
-4.5 -10.6 62 -5 -5 холодно 1034.9 996.5 -2.0
штиль 0 50 км 9/0
[Ac trans]
-5.2 -11.1 63 -6 -6 холодно 1035.1 996.6
штиль 0 50 км ясно -10.9 -12.9 85 -11 -11 очень
холодно
1035.3 995.9
З 1 50 км ясно -12.6 -13.9 90 -15 -15 очень
холодно
1035.3 995.7
ЮЗ 1 50 км 3/0
[Ci fib]
-13.4 -14.7 90 -16 -16 очень
холодно
1035.4 995.7 -14.6 3
ЮЗ 2 50 км ясно -3.6 -11.6 54 -7 -5 холодно 1034.1 995.9
З 3 50 км 10/0
[As op Cs]
+1.6 -10.3 41 -2 -1 по сезону 1031.7 994.3
ЮЗ 1 50 км 10/0
[Ac lent Ci sp]
+0.5 -11.8 39 -1 -1 по сезону 1030.9 993.4
штиль 0 50 км 10/0
[Ac lent Cs]
-5.2 -11.6 61 -6 -6 холодно 1031.6 993.2 +1.7
ЮЗ 1 50 км 10/0
[Ci fib]
-4.0 -10.8 59 -6 -6 холодно 1030.6 992.3
ЮЗ 1 50 км 10/0
[Ci fib]
-5.3 -11.8 60 -7 -7 холодно 1030.0 991.6
штиль 0 50 км 10/0
[As trans Cs]
-5.4 -11.4 63 -6 -6 холодно 1026.1 987.9
штиль 0 50 км 10/0
[Ac As]
-3.5 -9.1 65 -4 -4 прохладно 1023.7 985.8 -6.0 3
Ю 1 50 км 10/0
[As trans]
-0.8 -7.8 59 -2 -1 по сезону 1020.9 983.4
штиль 0 10 км слаб. снег 10/0
[As trans]
-1.4 -2.3 94 -3 -2 прохладно 1019.2 981.8
ЮЗ 1 4000 м снег 10/0
[As op]
-0.8 -2.3 90 -3 -3 прохладно 1019.1 981.9
штиль 0 50 км {снег} 10/0
[Ac As]
-0.3 -2.7 84 -1 -1 по сезону 1020.7 983.4 -0.2 2
штиль 0 10 км слаб. снег 10/0
[As op]
0.0 -1.8 88 -1 -1 по сезону 1022.2 985.0
штиль 0 50 км {снег} 10/0
[Ac und]
-0.8 -1.4 96 -2 -2 по сезону 1022.5 985.2
штиль 0 50 км 10/10 1000 м
[Sc]
-0.4 -1.0 96 -2 -2 по сезону 1022.5 985.2
ЮЗ 1 50 км {снег} 10/10 300 м
[Frnb Ns]
+0.2 -0.9 92 -2 -2 по сезону 1021.5 984.3 -1.0 0.2 4
Ю 1 10 км слаб. снег 10/10 300 м
[Frnb Ns]
+1.5 +0.7 94 -0 -0 по сезону 1020.2 983.1
штиль 0 20 км слаб. дождь 10/10 300 м
[Frnb Ns]
+2.1 +1.4 95 +1 +1 по сезону 1018.6 981.8
штиль 0 50 км {дождь} 10/6 300 м
[Frnb Ac As]
+1.9 +1.6 98 +1 +1 по сезону 1016.7 979.9
штиль 0 50 км {дождь} 10/8 1000 м
[Sc Ac As]
+0.2 +0.2 100 -1 -1 по сезону 1016.7 979.6 +2.5 2
Ю 1 50 км 10/0
[Ac trans]
0.0 0.0 100 -2 -2 по сезону 1015.7 978.7
штиль 0 50 км 10/0
[Ac trans]
-0.2 -0.5 98 -2 -2 по сезону 1015.2 978.1
штиль 0 50 км 9/9
[Cb calv Ci ing]
-0.8 -0.8 100 -2 -2 по сезону 1014.7 977.6
Ю 1 50 км 10/0
[Ac As]
+0.2 +0.2 100 -2 -2 по сезону 1014.5 977.5 -1.7 2
Ю 1 50 км 9/1 1000 м
[Sc Ac trans]
+4.8 +3.1 89 +3 +4 по сезону 1014.4 978.1
Ю 3 50 км 8/0
[Ac cast Cc]
+10.8 0.0 47 +9 +10 тепло 1012.9 977.2
Ю 1 50 км 6/3 1000 м
[Sc Ci fib]
+8.0 +1.1 62 +8 +8 тепло 1013.0 977.1
штиль 0 50 км 9/9 1000 м
[Sc]
+1.0 -0.7 88 -0 -0 по сезону 1013.9 977.1 +11.1
штиль 0 50 км 8/3 1000 м
[Sc Ci fib]
-1.3 -1.9 96 -3 -3 прохладно 1013.9 976.6
штиль 0 50 км 10/0
[Cs]
-2.8 -4.1 91 -4 -4 прохладно 1012.8 975.5
штиль 0 50 км 10/0
[Cs]
-4.2 -5.1 93 -5 -5 холодно 1012.2 974.6
штиль 0 50 км 8/0
[Cs]
-5.2 -6.2 93 -6 -6 холодно 1012.0 974.3 -5.4 <0.5
Ю 1 50 км 8/0
[Ac trans]
+5.2 0.0 69 +4 +5 по сезону 1010.5 974.3
Ю 1 50 км 8/0
[Ci fib]
+9.5 -1.0 48 +9 +11 тепло 1009.9 974.2
штиль 0 50 км 10/0
[Ac As Ci fib]
+7.9 -0.6 55 +8 +8 тепло 1009.4 973.6
штиль 0 50 км 10/0
[Cs]
-0.8 -2.9 86 -2 -2 по сезону 1010.1 973.2 +10.5
штиль 0 50 км 10/0
[Ci fib]
-3.2 -4.5 91 -4 -4 прохладно 1008.8 971.5
штиль 0 50 км 10/0
[Ci fib]
-4.4 -5.3 93 -6 -6 холодно 1007.3 970.0
Ю 3 50 км 8/0
[Ac trans]
-0.8 -2.0 92 -6 -6 холодно 1006.1 969.3
Ю 1 50 км 8/0
[Ac lent Ci fib]
-3.8 -5.6 87 -6 -6 холодно 1007.8 970.5 -4.8 <0.5
штиль 0 50 км 9/0
[Cc]
+5.0 -3.0 56 +5 +6 тепло 1006.7 970.6
Ю 1 50 км 10/0
[As trans]
+9.2 -2.5 44 +9 +10 тепло 1005.5 970.0
штиль 0 50 км 10/1 1000 м
[Sc As op]
+5.4 -2.4 57 +5 +5 тепло 1005.5 969.5
штиль 0 50 км 10/0
[As op]
+1.4 -2.1 77 +1 +1 по сезону 1005.2 968.7 +10.1
ЮЗ 3 10 км слаб. дождь 10/0
[As op]
+4.2 +1.7 84 +1 +1 по сезону 1007.5 971.3
ЮЗ 5 10 км слаб. дождь 10/8 600 м
[Sc As op]
+3.1 +1.8 91 -2 -2 по сезону 1011.4 974.9
ЮЗ 1 50 км {дождь} 10/10 300 м
[Sc]
+2.6 -0.1 82 +1 +1 по сезону 1013.4 976.7
Местоположение метеостанции Комака (Якутия, Россия): широта 60.27 долгота 111.70 высота над уровнем моря 299 м.
В архиве по умолчанию представлена погода в Комаке за последнюю неделю. Архивные данные за месяц целиком и за предыдущие месяцы, начиная с января 2011 года, Вы можете получить, выбрав интересующий диапазон дат из раскрывающегося списка и нажав кнопку "Найти!".
*Определитесь, кто Вы:
Внимание! Время в таблицах - всемирное. Для получения местного времени необходимо прибавить поправку, которая равна 9 ч.
Смотрите также архив погоды в соседних городах и на ближайших метеорологических станциях:
Партнеры нашего сайта:      
Пояснения к столбцам:
  • Ветер - указаны скорость ветра в м/с - средняя за 10 мин, порывы в срок и между сроками (в фигурных скобках) и направление, откуда дует ветер: С - северный,
  • СВ - северо-восточный, В - восточный, ЮВ - юго-восточный, Ю - южный, ЮЗ - юго-западный, З - западный, СЗ - северо-западный.
  • Видимость - горизонтальная дальность видимости в метрах или километрах. При видимости от 1 до 10 км при отсутствии осадков обычно наблюдается дымка, при ухудшении видимости до 1 км и менее - туман. В сухую погоду видимость может ухудшаться дымом, пылью или мглою.
  • Явления - указаны атмосферные явления, наблюдавшиеся в срок или в последний час перед сроком; фигурными скобками обозначены явления, наблюдавшиеся между сроками (за 1-3 часа до срока); квадратными скобками обозначены град или гололедные отложения с указанием их диаметра в мм.
  • Облачность - указаны через наклонную черту общая и нижняя облачность в баллах и высота нижней границы облаков в метрах; квадратными скобками обозначены формы облаков: Ci - перистые, Cs - перисто-слоистые, Cc - перисто-кучевые, Ac - высококучевые, As - высокослоистые, Sc - слоисто-кучевые, Ns - слоисто-дождевые, Cu - кучевые, Cb - кучево-дождевые. Подробнее классификацию облаков см. в Атласе облаков (PDF).
  • T - Температура воздуха - температура, измеренная на высоте 2 м над землей.
  • Td - Температура точки росы - температура, при понижении до которой содержащийся в воздухе водяной пар достигнет насыщения.
  • f - Относительная влажность воздуха - влажноcть воздуха, измеренная на высоте 2 м над землей.
  • Te - Эффективная температура - температура, которую ощущает одетый по сезону человек в тени. Характеристика душности погоды. При расчете учитывается влияние влажности воздуха и скорости ветра на теплоощущения человека.
  • Tes - Эффективная температура на солнце - температура, которую ощущает человек, с поправкой на солнечный нагрев. Характеристика знойности погоды. Зависит от высоты солнца над горизонтом, облачности и скорости ветра. Ночью, в пасмурную погоду, а также при ветре 12 м/с и более поправка равна нулю.
  • P - Атмосферное давление - приведенное к уровню моря атмосферное давление.
  • Po - Атмосферное давление - измеренное на уровне метеостанции атмосферное давление.
  • Tmin - Минимальная температура - минимум температуры воздуха на высоте 2 м над землей.
  • Tmax - Максимальная температура - максимум температуры воздуха на высоте 2 м над землей.
  • R - Количество осадков - Количество выпавших осадков за период времени, мм. При наведении курсора мыши на число - период времени, за который выпало указанное количество осадков.
  • R24 - Количество осадков - Количество выпавших осадков за 24 часа, мм.
  • S - Снежный покров - Высота снежного покрова, см. При наведении курсора мыши на число - состояние снежного покрова и степень покрытия местности в баллах.